Location: Cahas Mountain Overlook
(37.0833°N, 80.1000°W)
Time: 06:30:12
(UTC-04:00)

Explorer 7 - Pass Details

Date: 14 February 2026
Orbit: 430 x 540 km, 50.2° (Epoch: 14 March)

Event Time Altitude Azimuth Distance (km) Brightness Sun altitude
Rises 16:09:27 0° 233° (SW) 2,414 11.8 19.1°
Reaches altitude 10° 16:11:32 10° 234° (SW) 1,562 11.7 18.7°
Maximum altitude 16:15:03 82° 321° (NW) 465 6.8 18.1°
Drops below altitude 10° 16:18:44 10° 50° (NE) 1,631 8.7 17.5°
Sets 16:20:57 0° 52° (NE) 2,533 9.6 17.1°
